This is the latest recevied weather packets stored in our database for station/object N1OF. If no packets are shown the sender has not sent any weather packets the latest 10 day(s).
| Time | Temp. | Humidity | Pressure | Rain* | Wind** | Luminosity | Snow |
|---|---|---|---|---|---|---|---|
| 1778099606 | 12.22° C | 46% | 1013.2 hPa | 0 mm | - | - | - |
| 1778099303 | 12.78° C | 44% | 1013.2 hPa | 0 mm | - | - | - |
| 1778099000 | 12.78° C | 43% | 1013.3 hPa | 0 mm | - | - | - |
| 1778098696 | 12.78° C | 44% | 1013.4 hPa | 0 mm | - | - | - |
| 1778098394 | 12.78° C | 44% | 1013.4 hPa | 0 mm | - | - | - |
| 1778098091 | 12.78° C | 42% | 1013.5 hPa | 0 mm | - | - | - |
| 1778097787 | 12.78° C | 43% | 1013.4 hPa | 0 mm | - | - | - |
| 1778097483 | 12.78° C | 42% | 1013.3 hPa | 0 mm | - | - | - |
| 1778097180 | 12.78° C | 42% | 1013.4 hPa | 0 mm | - | - | - |
| 1778096877 | 13.33° C | 42% | 1013.3 hPa | 0 mm | - | - | - |
| 1778096573 | 13.33° C | 43% | 1013.1 hPa | 0 mm | - | - | - |
| 1778096272 | 13.89° C | 43% | 1013.1 hPa | 0 mm | - | - | - |
| 1778095968 | 13.89° C | 43% | 1013.2 hPa | 0 mm | - | - | - |
| 1778095664 | 13.89° C | 42% | 1013.1 hPa | 0 mm | - | - | - |
| 1778095361 | 13.89° C | 41% | 1013.4 hPa | 0 mm | - | - | - |
| 1778095058 | 13.89° C | 41% | 1013.4 hPa | 0 mm | - | - | - |
| 1778094754 | 14.44° C | 43% | 1013.1 hPa | 0 mm | - | - | - |
| 1778094452 | 13.89° C | 44% | 1013.5 hPa | 0 mm | - | - | - |
| 1778094148 | 13.33° C | 43% | 1013.3 hPa | 0 mm | - | - | - |
| 1778093845 | 13.33° C | 45% | 1013.3 hPa | 0 mm | - | - | - |
| 1778093541 | 13.33° C | 43% | 1013.6 hPa | 0 mm | - | - | - |
| 1778093239 | 13.33° C | 43% | 1013.6 hPa | 0 mm | - | - | - |
| 1778092936 | 13.33° C | 42% | 1013.6 hPa | 0 mm | - | - | - |
| 1778092633 | 13.33° C | 42% | 1013.5 hPa | 0 mm | - | - | - |
| 1778092329 | 13.33° C | 45% | 1013 hPa | 0 mm | - | - | - |
* Rain latest hour (hover to see other rain measurements)
** Current wind speed in m/s (hover to see current wind gust speed)